Location: Unspecified
(0.0000°N, 0.0000°E)
Time: 18:49:31
(UTC+00:00)

N. Korean satellite - Visible Passes

Search period start: 26 March 2017 00:00
Search period end: 05 April 2017 00:00
Orbit: 461 x 520 km, 97.2° (Epoch: 24 March)

Date Brightness Start Highest point End Pass type
(mag) Time Alt. Az. Time Alt. Az. Time Alt. Az.
26 Mar 9.3 19:20:56 10° SSW 19:23:49 22° WSW 19:26:41 10° NW visible
27 Mar 7.5 18:57:45 10° S 19:01:21 51° WSW 19:04:52 10° NNW visible
28 Mar 6.6 18:35:13 10° SSE 18:38:51 61° E 18:42:25 10° N visible
30 Mar 9.5 19:24:31 10° SSW 19:27:08 19° WSW 19:29:44 10° NW visible
31 Mar 7.8 19:01:10 10° S 19:04:39 43° W 19:08:04 10° NNW visible
01 Apr 6.5 18:38:30 10° SSE 18:42:08 71° E 18:45:41 10° N visible
03 Apr 9.6 19:28:03 10° SW 19:30:22 16° WSW 19:32:39 10° WNW visible
04 Apr 8.1 19:04:30 10° S 19:07:51 37° WSW 19:11:09 10° NNW visible
